Flag for Norway Weather past 2 weeks in Nærbø, Norway

Now
59 °F

Refreshingly cool.


Feels Like: 59 °F
Forecast: 56 / 65 °F
Wind: 2 mph from East

Location: Obrestad

Current Time: Sep 16, 2014 at 11:58:48 PM

Latest Report: Sep 16, 2014 at 10:00 PM


Visibility: N/A

Pressure: 30.23 "Hg

Humidity: 54%

Dew point: 42 °F

Location of NærbøLocation

Historic Weather in Nærbø — Graph

°F

Nærbø temperature yesterday

Maximum temperature yesterday: 67 °F (at 1:00 PM)
Minimum temperature yesterday: 48 °F (at 5:00 AM)
Average temperature yesterday: 59 °F

Past Weeks' High & Low Weather Summary

 TemperatureHumidityPressure
High69 °F (Sep 16, 2:00 PM)97% (Sep 6, 6:00 PM)30.46 "Hg (Sep 6, 6:00 PM)
Low48 °F (Sep 8, 5:00 AM)37% (Sep 16, 3:00 PM)29.81 "Hg (Sep 7, 2:00 AM)
Average58 °F84%30.18 "Hg
* Reported Sep 1 10:00 PM — Sep 16 10:00 PM, Nærbø, Weather by CustomWeather, © 2014

Note: Actual official high and low records may vary slightly from our data, if they occured in-between our weather recording intervals... More about our weather records

Advertising

Nærbø weather history for previous 24 hours

 ConditionsComfort  
Time TempWeatherWind HumidityBarometerVisibility
10:00 PM
Sep 16
59 °FRefreshingly cool.2 mph54%30.23 "HgN/A
9:00 PM61 °FRefreshingly cool.2 mph53%30.23 "HgN/A
8:00 PM62 °FRefreshingly cool.3 mph51%30.22 "HgN/A
7:00 PM65 °FMild.5 mph46%30.21 "HgN/A
6:00 PM66 °FMild.6 mph42%30.20 "HgN/A
5:00 PM69 °FMild.6 mph38%30.20 "HgN/A
4:00 PM69 °FMild.8 mph37%30.21 "HgN/A
3:00 PM69 °FMild.7 mph37%30.22 "HgN/A
2:00 PM69 °FMild.6 mph43%30.23 "HgN/A
1:00 PM69 °FMild.3 mph47%30.24 "HgN/A
12:00 PM67 °FMild.3 mph47%30.24 "HgN/A
11:00 AM65 °FMild.3 mph51%30.25 "HgN/A
10:00 AM63 °FMild.2 mph55%30.25 "HgN/A
9:00 AM61 °FRefreshingly cool.2 mph59%30.25 "HgN/A
8:00 AM59 °FCool.2 mph62%30.25 "HgN/A
7:00 AM58 °FCool.2 mph64%30.25 "HgN/A
6:00 AM59 °FCool.2 mph61%30.25 "HgN/A
5:00 AM58 °FCool.2 mph66%30.26 "HgN/A
4:00 AM57 °FCool.2 mph68%30.27 "HgN/A
3:00 AM58 °FCool.3 mph60%30.27 "HgN/A
2:00 AM58 °FRefreshingly cool.2 mph59%30.27 "HgN/A
1:00 AM60 °FRefreshingly cool.1 mph50%30.28 "HgN/A
12:00 AM59 °FRefreshingly cool.1 mph53%30.28 "HgN/A
11:00 PM
Sep 15
59 °FRefreshingly cool.1 mph54%30.29 "HgN/A
Weather by CustomWeather, © 2014

See weather overviewHow to use our weather pages